Location: Caltech
(34.1382°N, 118.1253°W)
Time: 09:36:24
(UTC-07:00)

Oscar 19 - Visible Passes

Search period start: 24 July 2016 00:00
Search period end: 03 August 2016 00:00
Orbit: 773 x 791 km, 98.5° (Epoch: 23 July)

Date Brightness Start Highest point End Pass type
(mag) Time Alt. Az. Time Alt. Az. Time Alt. Az.
24 Jul 11.7 02:08:18 10° NNE 02:11:45 41° NE 02:11:45 41° NE visible
24 Jul 12.7 03:49:42 10° NW 03:52:10 14° WNW 03:52:18 14° WNW visible
25 Jul 12.6 01:37:03 10° NE 01:39:31 23° ENE 01:39:31 23° ENE visible
25 Jul 12.0 03:16:25 10° NNW 03:20:04 27° NW 03:20:04 27° NW visible
26 Jul 13.3 01:06:56 10° ENE 01:07:17 11° ENE 01:07:17 11° ENE visible
26 Jul 11.5 02:44:05 10° N 02:47:50 44° NNW 02:47:50 44° NNW visible
27 Jul 11.8 02:12:14 10° NNE 02:15:36 40° NNE 02:15:36 40° NNE visible
27 Jul 12.7 03:54:02 10° NW 03:56:05 12° WNW 03:56:09 12° WNW visible
28 Jul 12.6 01:40:55 10° NE 01:43:21 23° NE 01:43:21 23° NE visible
28 Jul 12.1 03:20:30 10° NNW 03:23:55 24° NW 03:23:55 24° NW visible
29 Jul 13.3 01:10:33 10° ENE 01:11:07 12° ENE 01:11:07 12° ENE visible
29 Jul 11.6 02:48:04 10° N 02:51:40 40° NNW 02:51:40 40° NNW visible
30 Jul 11.8 02:16:11 10° NNE 02:19:26 39° NNE 02:19:26 39° NNE visible
30 Jul 12.8 03:58:29 10° NW 03:59:58 11° WNW 03:59:58 11° WNW visible
31 Jul 12.6 01:44:47 10° NNE 01:47:11 24° NE 01:47:11 24° NE visible
31 Jul 12.3 03:24:35 10° NNW 03:27:44 22° NW 03:27:44 22° NW visible
01 Aug 13.2 01:14:13 10° NE 01:14:56 12° ENE 01:14:56 12° ENE visible
01 Aug 11.8 02:52:05 10° N 02:55:30 36° NNW 02:55:30 36° NNW visible
02 Aug 11.9 02:20:08 10° NNE 02:23:15 38° NNE 02:23:15 38° NNE visible
02 Aug 12.9 04:03:23 10° WNW 04:03:48 10° WNW 04:03:48 10° WNW visible
